[[{"header":{"parameterUnit":"m.s-1","parameterCategory":1,"la1":30.2991,"la2":30.254,"lo1":-89.0895,"lo2":-89.0444,"dy":0.0017,"dx":0.0017,"nx":28,"ny":28,"refTime":"2023-09-23T09:00:00:Z","depth":0,"parameterNumber":2,"parameterNumberName":"U-component_of_WINDS"},"data":[0,0,0,0,0,0,0,0,0,0,0,0,0,0,0,0,0,0,0,0,0,0,0,0,0,0,0,0,0,0,0,0,0,0,0,0,0,0,0,0,0,0,0,0,0,0,0,0,0,0,0,0,0,0,0,0,0,0,-1.1361,-1.1362,0,-1.14,-1.14,-1.1401,-1.1362,-1.1361,-1.1359,-1.1358,-1.14,-1.1402,-1.1405,0,0,0,0,0,0,0,0,0,0,0,0,0,-1.1257,-1.1259,-1.1361,-1.1362,-1.1362,-1.14,-1.14,-1.1401,-1.1362,-1.1361,-1.1359,-1.1357,-1.1399,-1.1402,-1.1405,0,0,0,0,0,0,0,0,0,0,0,0,0,-1.13,-1.126,-1.1361,-1.1348,-1.1347,-1.1399,-1.14,-1.1401,-1.1363,-1.1361,-1.1358,-1.1356,-1.1398,-1.1402,-1.1406,-1.1475,0,0,-1.1417,-1.1419,0,0,0,0,0,0,0,0,-1.1298,-1.1304,-1.1349,-1.1349,-1.1348,-1.1374,-1.1379,-1.1426,-1.1363,-1.1357,-1.1358,-1.1355,-1.1393,-1.1397,-1.141,-1.1477,-1.1478,-1.1418,-1.142,-1.1422,-1.1423,0,0,0,0,0,0,0,-1.1295,-1.1302,-1.1376,-1.135,-1.1349,-1.134,-1.1344,-1.1388,-1.1387,-1.1357,-1.1355,-1.1359,-1.1393,-1.1406,-1.141,-1.1479,-1.1417,-1.1421,-1.1423,-1.1425,-1.1605,-1.1607,0,0,0,0,0,0,-1.1293,-1.13,-1.1375,-1.1378,-1.1316,-1.1344,-1.1348,-1.1368,-1.1387,-1.1387,-1.1361,-1.1357,-1.1401,-1.1406,-1.1412,-1.1494,-1.1421,-1.1425,-1.1427,-1.1602,-1.1605,-1.1608,0,0,0,0,0,0,-1.1291,-1.13,-1.1374,-1.1338,-1.1347,-1.1348,-1.1371,-1.137,-1.1383,-1.139,-1.139,-1.1375,-1.1399,-1.1406,-1.1459,-1.1495,-1.1427,-1.143,-1.1599,-1.1603,-1.1607,-1.1659,0,0,0,0,0,0,-1.1288,-1.1299,-1.1325,-1.1339,-1.1349,-1.142,-1.1373,-1.1372,-1.1389,-1.1385,-1.1403,-1.1404,-1.1398,-1.1454,-1.1463,-1.1499,-1.1433,-1.1596,-1.1601,-1.1605,-1.1654,-1.1664,-1.1672,0,0,0,0,0,-1.1284,-1.1339,-1.1326,-1.1336,-1.1381,-1.1422,-1.1428,-1.1419,-1.1392,-1.1419,-1.1423,-1.1403,-1.1489,-1.1459,-1.1469,-1.1507,-1.1594,-1.16,-1.1605,-1.165,-1.1662,-1.1672,0,0,0,0,0,0,-1.133,-1.134,-1.1327,-1.1387,-1.1404,-1.1415,-1.1448,-1.1432,-1.1458,-1.1453,-1.1442,-1.1446,-1.1502,-1.151,-1.1476,-1.1575,-1.1537,-1.1545,-1.1568,-1.158,-1.1589,-1.1586,-1.1436,0,0,0,0,0,-1.1347,-1.1379,-1.1387,-1.1439,-1.1448,-1.1447,-1.1465,-1.1456,-1.1474,-1.1481,-1.1489,-1.1507,-1.1538,-1.1559,-1.1588,-1.1655,-1.1658,-1.1686,-1.1695,-1.1702,-1.171,-1.1746,-1.1758,-1.1626,-1.1626,-1.1626,0,0,-1.1383,-1.1393,-1.1414,-1.1449,-1.1461,-1.1495,-1.1453,-1.1491,-1.1516,-1.1487,-1.1537,-1.1544,-1.1563,-1.1623,-1.165,-1.1631,-1.1747,-1.1709,-1.1715,-1.1719,-1.1753,-1.1765,-1.1776,-1.163,-1.1629,-1.1629,0,0,-1.1466,-1.1476,-1.1521,-1.1534,-1.1552,-1.1551,-1.1561,-1.1575,-1.1578,-1.1628,-1.1607,-1.1637,-1.1691,-1.1706,-1.1721,-1.1809,-1.1791,-1.1818,-1.1867,-1.1902,-1.1913,-1.1922,-1.1954,-1.1965,-1.1825,-1.1826,-1.1826,0,-1.1509,-1.1559,-1.1547,-1.1586,-1.1602,-1.1576,-1.1622,-1.1635,-1.1662,-1.1674,-1.1653,-1.172,-1.1731,-1.1794,-1.1816,-1.1828,-1.1841,-1.1817,-1.1912,-1.1921,-1.1929,-1.196,-1.1972,-1.1829,-1.1828,-1.1828,-1.1828,0,-1.161,-1.1645,-1.1679,-1.1705,-1.1725,-1.1768,-1.1763,-1.1785,-1.1775,-1.1776,-1.1828,-1.184,-1.1871,-1.1886,-1.1877,-1.1948,-1.1936,-1.1913,-1.1875,-1.1945,-1.1974,-1.1985,-1.1833,-1.1832,-1.1831,-1.183,0,0,-1.1725,-1.1742,-1.1755,-1.1767,-1.1785,-1.1812,-1.1853,-1.1882,-1.1902,-1.1921,-1.1956,-1.2002,-1.1981,-1.1998,-1.1991,-1.2021,-1.2091,-1.1995,-1.1996,-1.2013,-1.2171,-1.2188,-1.2202,-1.2079,-1.2081,-1.2083,-1.2169,0,-1.1808,-1.1879,-1.187,-1.1938,-1.197,-1.1945,-1.1982,-1.1997,-1.1999,-1.2027,-1.203,-1.2063,-1.2033,-1.2042,-1.2072,-1.2076,-1.2123,-1.207,-1.2113,-1.2115,-1.2109,-1.2216,-1.2235,-1.2316,-1.218,-1.2182,-1.2184,0,-1.1916,-1.1938,-1.201,-1.2022,-1.2035,-1.2068,-1.2094,-1.2121,-1.2138,-1.2138,-1.2156,-1.2143,-1.2185,-1.2146,-1.2204,-1.2169,-1.2186,-1.219,-1.2193,-1.2198,-1.2154,-1.2225,-1.2341,-1.2354,-1.2201,-1.2199,-1.2198,0,-1.1993,-1.2041,-1.209,-1.21,-1.2116,-1.2139,-1.2147,-1.2162,-1.218,-1.2203,-1.2215,-1.2243,-1.2259,-1.2281,-1.2277,-1.2248,-1.2337,-1.2297,-1.2338,-1.2339,-1.2359,-1.2358,-1.2481,-1.2369,-1.2368,-1.2368,-1.2368,0,-1.2088,-1.2133,-1.2124,-1.2155,-1.2204,-1.2193,-1.2243,-1.2248,-1.2261,-1.2292,-1.2272,-1.2302,-1.2294,-1.2324,-1.232,-1.2369,-1.2377,-1.2378,-1.2377,-1.238,-1.238,-1.2392,-1.2387,-1.2371,-1.2371,-1.237,-1.2369,0,-1.2183,-1.2179,-1.2231,-1.2241,-1.2244,-1.2281,-1.229,-1.2319,-1.2319,-1.2359,-1.2367,-1.2368,-1.2402,-1.2399,-1.2438,-1.2435,-1.2497,-1.2488,-1.2491,-1.2489,-1.2531,-1.2528,-1.2667,-1.2685,-1.256,-1.2561,-1.2562,0,-1.2245,-1.2279,-1.2292,-1.2311,-1.232,-1.2351,-1.2369,-1.2359,-1.2379,-1.2401,-1.2427,-1.2459,-1.2484,-1.254,-1.2545,-1.2574,-1.2567,-1.2614,-1.2572,-1.2574,-1.2569,-1.2567,-1.2571,-1.2622,-1.2624,-1.2625,-1.2626,0,-1.2355,-1.2351,-1.2377,-1.2403,-1.2425,-1.2445,-1.2463,-1.248,-1.2472,-1.2495,-1.2529,-1.2549,-1.2588,-1.262,-1.2648,-1.2657,-1.2641,-1.2639,-1.265,-1.2655,-1.2655,-1.2656,-1.2515,-1.2636,-1.2635,-1.2634,-1.2634,-1.2633,-1.2436,-1.2464,-1.2478,-1.2508,-1.252,-1.2538,-1.2565,-1.2568,-1.2596,-1.2626,-1.2618,-1.2657,-1.2673,-1.2709,-1.272,-1.2751,-1.2734,-1.2751,-1.2755,-1.2759,-1.2765,-1.2649,-1.2756,-1.2756,-1.2756,-1.2755,-1.2755,0,-1.2545,-1.2552,-1.258,-1.2605,-1.2629,-1.261,-1.2629,-1.2651,-1.2685,-1.27,-1.2725,-1.2764,-1.2796,-1.2802,-1.2832,-1.2855,-1.2849,-1.2864,-1.2863,-1.2865,-1.2778,-1.2765,-1.2869,-1.2869,-1.2869,-1.2869,-1.2869,-1.2868,-1.2605,-1.2653,-1.2651,-1.2705,-1.2712,-1.2748,-1.2761,-1.2777,-1.279,-1.2834,-1.2859,-1.2863,-1.2875,-1.2906,-1.2934,-1.2935,-1.2947,-1.2965,-1.2964,-1.2882,-1.2871,-1.286,-1.2849,-1.2968,-1.2968,-1.3049,-1.3049,-1.305]},{"header":{"parameterUnit":"m.s-1","parameterCategory":1,"la1":30.2991,"la2":30.254,"lo1":-89.0895,"lo2":-89.0444,"dy":0.0017,"dx":0.0017,"nx":28,"ny":28,"refTime":"2023-09-23T09:00:00:Z","depth":0,"parameterNumber":3,"parameterNumberName":"V-component_of_WINDS"},"data":[0,0,0,0,0,0,0,0,0,0,0,0,0,0,0,0,0,0,0,0,0,0,0,0,0,0,0,0,0,0,0,0,0,0,0,0,0,0,0,0,0,0,0,0,0,0,0,0,0,0,0,0,0,0,0,0,0,0,2.5185,2.5185,0,2.5222,2.5223,2.5223,2.5192,2.5191,2.519,2.5189,2.5225,2.5227,2.5229,0,0,0,0,0,0,0,0,0,0,0,0,0,2.5083,2.5085,2.5185,2.5185,2.5186,2.5222,2.5223,2.5223,2.5193,2.5191,2.519,2.5188,2.5224,2.5227,2.5229,0,0,0,0,0,0,0,0,0,0,0,0,0,2.5124,2.5086,2.5184,2.5175,2.5174,2.5222,2.5223,2.5223,2.5193,2.5191,2.5189,2.5187,2.5223,2.5226,2.523,2.5288,0,0,2.524,2.5241,0,0,0,0,0,0,0,0,2.5122,2.5128,2.5176,2.5176,2.5175,2.5201,2.52,2.5245,2.5194,2.5186,2.5189,2.5186,2.5218,2.5222,2.5233,2.529,2.5292,2.524,2.5242,2.5243,2.5244,0,0,0,0,0,0,0,2.5119,2.5126,2.5199,2.5176,2.5176,2.5167,2.5171,2.5208,2.5212,2.5186,2.5184,2.5189,2.5218,2.523,2.5234,2.5292,2.524,2.5243,2.5245,2.5246,2.5396,2.5398,0,0,0,0,0,0,2.5118,2.5124,2.5198,2.5201,2.5143,2.5171,2.5175,2.5194,2.5212,2.5213,2.5191,2.5188,2.5225,2.523,2.5235,2.5303,2.5243,2.5246,2.5248,2.5394,2.5397,2.5399,0,0,0,0,0,0,2.5116,2.5125,2.5197,2.5162,2.517,2.5175,2.5197,2.5196,2.5208,2.5215,2.5216,2.5203,2.5224,2.523,2.5275,2.5303,2.5248,2.5251,2.5392,2.5395,2.5398,2.544,0,0,0,0,0,0,2.5113,2.5124,2.5147,2.5163,2.5172,2.5237,2.5198,2.5198,2.5214,2.5211,2.5227,2.5227,2.5223,2.527,2.5278,2.5307,2.5253,2.5389,2.5393,2.5397,2.5436,2.5444,2.5451,0,0,0,0,0,2.5109,2.5158,2.5149,2.5158,2.5202,2.5239,2.5244,2.5239,2.5217,2.5239,2.5243,2.5227,2.53,2.5275,2.5284,2.5314,2.5387,2.5392,2.5397,2.5433,2.5442,2.5451,0,0,0,0,0,0,2.5145,2.516,2.515,2.5205,2.5221,2.5234,2.5262,2.525,2.5272,2.5268,2.5259,2.5263,2.531,2.5317,2.5289,2.537,2.534,2.5346,2.5364,2.5373,2.5381,2.5377,2.5256,0,0,0,0,0,2.516,2.519,2.52,2.5248,2.5256,2.5258,2.5274,2.5268,2.5285,2.5291,2.5299,2.5314,2.534,2.5357,2.5382,2.5437,2.5439,2.5462,2.547,2.5476,2.5481,2.5509,2.5518,2.5414,2.5414,2.5414,0,0,2.5189,2.5201,2.522,2.5255,2.5267,2.5297,2.5264,2.5298,2.5319,2.5296,2.5338,2.5344,2.5361,2.541,2.5433,2.5417,2.551,2.5482,2.5487,2.5488,2.5514,2.5524,2.5533,2.5417,2.5417,2.5416,0,0,2.5258,2.5271,2.5311,2.5323,2.5342,2.5343,2.5352,2.5367,2.537,2.5412,2.5395,2.542,2.5466,2.5478,2.549,2.5563,2.5547,2.5571,2.5609,2.5636,2.5644,2.5652,2.5675,2.5684,2.5576,2.5577,2.5577,0,2.5293,2.5338,2.5333,2.5367,2.5382,2.5363,2.5402,2.5414,2.544,2.545,2.5433,2.5488,2.5499,2.555,2.5567,2.5578,2.5587,2.5568,2.5644,2.5651,2.5658,2.568,2.5689,2.5579,2.5579,2.5579,2.5578,0,2.5378,2.541,2.5439,2.5464,2.5483,2.552,2.5518,2.5537,2.553,2.5532,2.5574,2.5586,2.5611,2.5623,2.5617,2.5673,2.5663,2.5645,2.5614,2.567,2.5691,2.57,2.5583,2.5582,2.5581,2.558,0,0,2.547,2.5491,2.5502,2.5512,2.5531,2.5555,2.559,2.5615,2.5631,2.5649,2.5677,2.5716,2.5699,2.5713,2.5707,2.5731,2.5785,2.571,2.571,2.5722,2.5845,2.5857,2.5867,2.5776,2.5777,2.5779,2.5843,0,2.5538,2.56,2.5596,2.5653,2.5681,2.5663,2.5693,2.5707,2.571,2.5733,2.5736,2.5762,2.574,2.5747,2.577,2.5773,2.5809,2.5769,2.5799,2.5801,2.5794,2.5878,2.5891,2.5951,2.5851,2.5853,2.5854,0,2.5626,2.5647,2.5708,2.572,2.5732,2.5759,2.5781,2.5804,2.5819,2.5819,2.5834,2.5824,2.5858,2.5827,2.5872,2.5845,2.5857,2.5861,2.5863,2.5864,2.5829,2.588,2.5971,2.5979,2.5867,2.5866,2.5865,0,2.5685,2.5728,2.5769,2.5779,2.5796,2.5815,2.5822,2.5835,2.585,2.587,2.5879,2.5902,2.5914,2.5931,2.5927,2.5905,2.5972,2.5942,2.5971,2.5972,2.5985,2.5984,2.6077,2.5997,2.5996,2.5996,2.5996,0,2.576,2.5797,2.5795,2.582,2.5861,2.5855,2.5895,2.59,2.5912,2.5936,2.5923,2.5946,2.594,2.5963,2.596,2.5996,2.6002,2.6002,2.6,2.6002,2.6002,2.6009,2.6004,2.5999,2.5998,2.5998,2.5997,0,2.5832,2.5832,2.5875,2.5888,2.5891,2.592,2.593,2.5953,2.5954,2.5986,2.5993,2.5995,2.602,2.6018,2.6048,2.6046,2.609,2.6085,2.6085,2.6083,2.6112,2.6109,2.6212,2.6224,2.6137,2.6138,2.6139,0,2.5879,2.5907,2.5922,2.5937,2.5946,2.5972,2.5987,2.5982,2.5998,2.6017,2.6037,2.6062,2.6081,2.6123,2.6126,2.6148,2.6141,2.6176,2.6144,2.6145,2.6139,2.6137,2.6139,2.6182,2.6183,2.6183,2.6184,0,2.5962,2.596,2.5983,2.6006,2.6024,2.6041,2.6057,2.6071,2.6067,2.6086,2.6112,2.6127,2.6156,2.618,2.6201,2.6207,2.6195,2.6194,2.6202,2.6203,2.6201,2.62,2.61,2.6191,2.6191,2.619,2.619,2.6189,2.6021,2.6044,2.6058,2.6083,2.6095,2.6109,2.6131,2.6135,2.6157,2.6181,2.6176,2.6205,2.6218,2.6244,2.6253,2.6275,2.6262,2.6274,2.6276,2.6279,2.6281,2.6199,2.6279,2.6278,2.6278,2.6278,2.6278,0,2.6102,2.6109,2.6133,2.6155,2.6174,2.6162,2.6178,2.6195,2.622,2.6234,2.6253,2.6282,2.6305,2.631,2.6332,2.6348,2.6342,2.6354,2.6351,2.6353,2.6292,2.6282,2.6357,2.6357,2.6357,2.6357,2.6357,2.6357,2.6146,2.6183,2.6183,2.6226,2.6233,2.6262,2.6272,2.6285,2.6295,2.6329,2.6348,2.6351,2.636,2.6382,2.6402,2.6403,2.6411,2.6424,2.6422,2.6365,2.6357,2.6349,2.634,2.6426,2.6426,2.648,2.6481,2.6481]}]]